University AP, Davis, CA, CA

7:36 AM PST on December 09, 2019 (GMT -0800)
University AP, Davis, CA

Weather History for KEDU - October, 2019

Change the Weather History Date:

Friday, October 11, 2019

  Actual Average (KSMF) Record (KSMF)
Temperature  
Mean Temperature 62 °F -  
Max Temperature 77 °F 79 °F 96 °F (1991)
Min Temperature 48 °F 51 °F 39 °F (1998)
Degree Days  
Heating Degree Days 2    
Growing Degree Days 12 (Base 50)    
Moisture  
Dew Point 25 °F    
Average Humidity 28    
Maximum Humidity 58    
Minimum Humidity 13    
Precipitation  
Precipitation 0.00 in - - ()
Sea Level Pressure  
Sea Level Pressure 30.00 in    
Wind  
Wind Speed 5 mph ()    
Max Wind Speed 10 mph    
Max Gust Speed -    
Visibility 10.0 miles    
Events      
Averages and records for this station are not official NWS values.
T = Trace of Precipitation, MM = Missing Value Source: Averaged Metar Reports

Daily Weather History Graph

Daily Weather History Graph

Search for Another Location

Airport or City:

Astronomy

Oct. 11, 2019 Rise Set
Actual Time 7:12 AM PDT 6:34 PM PDT
Civil Twilight 6:45 AM PDT 7:01 PM PDT
Nautical Twilight 6:14 AM PDT 7:32 PM PDT
Astronomical Twilight 5:44 AM PDT 8:02 PM PDT
Moon 6:04 PM PDT (10/11) 5:00 AM PDT (10/11)
Length of Visible Light 12h 15m
Length of Day
11h 22m
Waxing Gibbous, 96% of the Moon is Illuminated
Oct 11
Waxing Gibbous
Oct 13
Full
Oct 21
Last Quarter
Oct 27
New
Nov 4
First Quarter

Hourly Weather History & Observations

Time (PDT) Temp. Dew Point Humidity Pressure Visibility Wind Dir Wind Speed Gust Speed Precip Events Conditions
12:00 AM 59.0 °F 19.4 °F 22% 30.00 in 10.0 mi NNW 6.9 mph - N/A   Clear
12:40 AM 55.4 °F 23.0 °F 29% 30.00 in 10.0 mi NNE 3.5 mph - N/A   Clear
1:00 AM 51.8 °F 24.8 °F 35% 30.01 in 10.0 mi North 3.5 mph - N/A   Clear
1:20 AM 53.6 °F 24.8 °F 33% 30.01 in 10.0 mi NNW 3.5 mph - N/A   Clear
1:40 AM 53.6 °F 24.8 °F 33% 30.01 in 10.0 mi NW 3.5 mph - N/A   Clear
2:00 AM 53.6 °F 23.0 °F 30% 30.02 in 10.0 mi North 4.6 mph - N/A   Clear
2:20 AM 53.6 °F 24.8 °F 33% 30.02 in 10.0 mi North 5.8 mph - N/A   Clear
2:40 AM 50.0 °F 26.6 °F 40% 30.02 in 10.0 mi North 5.8 mph - N/A   Clear
3:00 AM 50.0 °F 26.6 °F 40% 30.02 in 10.0 mi North 4.6 mph - N/A   Clear
3:20 AM 50.0 °F 24.8 °F 37% 30.02 in 10.0 mi North 5.8 mph - N/A   Clear
3:40 AM 50.0 °F 26.6 °F 40% 30.02 in 10.0 mi North 6.9 mph - N/A   Clear
4:00 AM 50.0 °F 26.6 °F 40% 30.02 in 10.0 mi North 5.8 mph - N/A   Clear
4:20 AM 50.0 °F 24.8 °F 37% 30.02 in 10.0 mi North 5.8 mph - N/A   Clear
4:40 AM 50.0 °F 23.0 °F 35% 30.03 in 10.0 mi North 5.8 mph - N/A   Clear
5:00 AM 51.8 °F 21.2 °F 30% 30.03 in 10.0 mi North 4.6 mph - N/A   Clear
5:20 AM 51.8 °F 19.4 °F 28% 30.03 in 10.0 mi North 4.6 mph - N/A   Clear
5:40 AM 51.8 °F 19.4 °F 28% 30.04 in 10.0 mi North 5.8 mph - N/A   Clear
6:00 AM 48.2 °F 19.4 °F 32% 30.04 in 10.0 mi North 4.6 mph - N/A   Clear
6:20 AM 50.0 °F 19.4 °F 30% 30.04 in 10.0 mi North 5.8 mph - N/A   Clear
6:40 AM 50.0 °F 19.4 °F 30% 30.05 in 10.0 mi North 5.8 mph - N/A   Clear
7:00 AM 50.0 °F 19.4 °F 30% 30.05 in 10.0 mi North 6.9 mph - N/A   Clear
7:20 AM 50.0 °F 19.4 °F 30% 30.05 in 10.0 mi North 6.9 mph - N/A   Clear
7:40 AM 51.8 °F 17.6 °F 26% 30.05 in 10.0 mi North 5.8 mph - N/A   Clear
8:00 AM 53.6 °F 17.6 °F 24% 30.06 in 10.0 mi North 4.6 mph - N/A   Clear
8:20 AM 53.6 °F 17.6 °F 24% 30.06 in 10.0 mi North 5.8 mph - N/A   Clear
8:40 AM 55.4 °F 17.6 °F 23% 30.07 in 10.0 mi NNW 8.1 mph - N/A   Clear
9:00 AM 57.2 °F 17.6 °F 21% 30.08 in 10.0 mi North 8.1 mph - N/A   Clear
9:20 AM 59.0 °F 17.6 °F 20% 30.08 in 10.0 mi North 9.2 mph - N/A   Clear
9:40 AM 60.8 °F 15.8 °F 17% 30.08 in 10.0 mi North 8.1 mph - N/A   Clear
10:00 AM 62.6 °F 15.8 °F 16% 30.08 in 10.0 mi North 9.2 mph - N/A   Clear
10:20 AM 64.4 °F 15.8 °F 15% 30.08 in 10.0 mi North 9.2 mph - N/A   Clear
10:40 AM 64.4 °F 15.8 °F 15% 30.07 in 10.0 mi North 10.4 mph - N/A   Clear
11:00 AM 66.2 °F 15.8 °F 14% 30.07 in 10.0 mi North 9.2 mph - N/A   Clear
11:20 AM 68.0 °F 17.6 °F 15% 30.07 in 10.0 mi NNW 9.2 mph - N/A   Clear
11:40 AM 68.0 °F 15.8 °F 13% 30.06 in 10.0 mi North 6.9 mph - N/A   Clear
12:00 PM 69.8 °F 15.8 °F 13% 30.06 in 10.0 mi North 9.2 mph - N/A   Clear
12:40 PM 71.6 °F 19.4 °F 14% 30.05 in 10.0 mi NNE 8.1 mph - N/A   Clear
1:00 PM 73.4 °F 24.8 °F 16% 30.04 in 10.0 mi North 8.1 mph - N/A   Clear
1:20 PM 73.4 °F 23.0 °F 15% 30.03 in 10.0 mi NNE 10.4 mph - N/A   Clear
1:40 PM 73.4 °F 24.8 °F 16% 30.02 in 10.0 mi North 6.9 mph - N/A   Clear
2:00 PM 75.2 °F 24.8 °F 15% 30.01 in 10.0 mi NE 6.9 mph - N/A   Clear
2:20 PM 75.2 °F 23.0 °F 14% 30.00 in 10.0 mi North 5.8 mph - N/A   Clear
2:40 PM 75.2 °F 24.8 °F 15% 29.99 in 10.0 mi NNW 5.8 mph - N/A   Clear
3:00 PM 75.2 °F 23.0 °F 14% 29.99 in 10.0 mi North 3.5 mph - N/A   Clear
3:20 PM 77.0 °F 23.0 °F 13% 29.98 in 10.0 mi NNE 3.5 mph - N/A   Clear
3:40 PM 75.2 °F 23.0 °F 14% 29.97 in 10.0 mi North 6.9 mph - N/A   Clear
4:00 PM 77.0 °F 23.0 °F 13% 29.96 in 10.0 mi North 5.8 mph - N/A   Clear
4:20 PM 75.2 °F 23.0 °F 14% 29.96 in 10.0 mi North 4.6 mph - N/A   Clear
4:40 PM 77.0 °F 24.8 °F 14% 29.95 in 10.0 mi NNW 5.8 mph - N/A   Clear
5:00 PM 75.2 °F 24.8 °F 15% 29.94 in 10.0 mi North 3.5 mph - N/A   Clear
5:20 PM 75.2 °F 24.8 °F 15% 29.94 in 10.0 mi North 3.5 mph - N/A   Clear
5:40 PM 75.2 °F 26.6 °F 17% 29.94 in 10.0 mi North 3.5 mph - N/A   Clear
6:00 PM 73.4 °F 28.4 °F 19% 29.93 in 10.0 mi Calm Calm - N/A   Clear
6:20 PM 73.4 °F 30.2 °F 20% 29.93 in 10.0 mi Calm Calm - N/A   Clear
6:40 PM 66.2 °F 35.6 °F 32% 29.93 in 10.0 mi Calm Calm - N/A   Clear
7:00 PM 64.4 °F 35.6 °F 34% 29.93 in 10.0 mi Calm Calm - N/A   Clear
7:20 PM 62.6 °F 35.6 °F 37% 29.93 in 10.0 mi Calm Calm - N/A   Clear
7:40 PM 62.6 °F 33.8 °F 34% 29.93 in 10.0 mi Calm Calm - N/A   Clear
8:00 PM 60.8 °F 32.0 °F 34% 29.94 in 10.0 mi Calm Calm - N/A   Clear
8:20 PM 59.0 °F 33.8 °F 39% 29.94 in 10.0 mi Calm Calm - N/A   Clear
8:40 PM 59.0 °F 32.0 °F 36% 29.94 in 10.0 mi Calm Calm - N/A   Clear
9:00 PM 53.6 °F 33.8 °F 47% 29.94 in 10.0 mi Calm Calm - N/A   Clear
9:20 PM 53.6 °F 35.6 °F 51% 29.94 in 10.0 mi Calm Calm - N/A   Clear
9:40 PM 53.6 °F 35.6 °F 51% 29.95 in 10.0 mi Calm Calm - N/A   Clear
10:00 PM 53.6 °F 35.6 °F 51% 29.95 in 10.0 mi Calm Calm - N/A   Clear
10:20 PM 53.6 °F 35.6 °F 51% 29.95 in 10.0 mi Calm Calm - N/A   Clear
10:40 PM 53.6 °F 33.8 °F 47% 29.95 in 10.0 mi Calm Calm - N/A   Clear
11:00 PM 50.0 °F 35.6 °F 58% 29.95 in 10.0 mi Calm Calm - N/A   Clear
11:20 PM 50.0 °F 35.6 °F 58% 29.95 in 10.0 mi Calm Calm - N/A   Clear
11:40 PM 50.0 °F 35.6 °F 58% 29.95 in 10.0 mi Calm Calm - N/A   Clear